When you browse on this site, cookies collect data to enhance your experience and personalize the content and advertising you see.
Visit our Privacy Policy to learn more. By continuing to use the site, you agree to this use of cookies and data.
  • în România
  • Lista ţărilor
  • Pe 7 zile
  • Temperatura apei
  • Hartă satelitară
  • Meteo pe hartă
  • Widget-uri
  • user-avatar
    Intrare

    Meteo pe oră la Mogilno

    Astăzi, 10 Decembrie, Luni

    Timp Temperatura Precipitaţii Vânt Presiune Umiditate
    00:00 +4°C° 0.4 mm 6 m/s 738 mmHg 84%
    01:00 +4°C° 0 mm 6 m/s 738 mmHg 84%
    02:00 +3°C° 0.3 mm 6 m/s 738 mmHg 82%
    03:00 +3°C° 0.3 mm 7 m/s 739 mmHg 80%
    04:00 +2°C° 0.3 mm 8 m/s 739 mmHg 78%
    05:00 +2°C° 0.1 mm 8 m/s 740 mmHg 76%
    06:00 +2°C° 0.1 mm 8 m/s 741 mmHg 75%
    07:00 +2°C° 0.1 mm 7 m/s 741 mmHg 73%
    08:00 +2°C° 0 mm 7 m/s 742 mmHg 73%
    09:00 +1°C° 0 mm 8 m/s 743 mmHg 72%
    10:00 +1°C° 0 mm 8 m/s 743 mmHg 72%
    11:00 +2°C° 0.1 mm 8 m/s 743 mmHg 69%
    12:00 +2°C° 0.1 mm 8 m/s 744 mmHg 67%
    13:00 +2°C° 0.1 mm 8 m/s 744 mmHg 64%
    14:00 +3°C° 0 mm 7 m/s 744 mmHg 66%
    15:00 +2°C° 0 mm 6 m/s 744 mmHg 68%
    16:00 +2°C° 0 mm 6 m/s 745 mmHg 70%
    17:00 +1°C° 0 mm 6 m/s 745 mmHg 71%
    18:00 +1°C° 0 mm 6 m/s 745 mmHg 73%
    19:00 +1°C° 0 mm 6 m/s 745 mmHg 75%
    20:00 0°C° 0 mm 5 m/s 745 mmHg 77%
    21:00 0°C° 0 mm 5 m/s 745 mmHg 79%
    22:00 0°C° 0 mm 5 m/s 745 mmHg 81%
    23:00 0°C° 0 mm 5 m/s 745 mmHg 82%

    Mâine, 11 Decembrie, Marţi

    Timp Temperatura Precipitaţii Vânt Presiune Umiditate
    00:00 0°C° 0 mm 5 m/s 745 mmHg 83%
    01:00 -1°C° 0 mm 5 m/s 745 mmHg 85%
    02:00 0°C° 0.2 mm 5 m/s 745 mmHg 84%
    03:00 0°C° 0.2 mm 5 m/s 745 mmHg 84%
    04:00 0°C° 0.2 mm 5 m/s 745 mmHg 84%
    05:00 0°C° 0.4 mm 4 m/s 745 mmHg 85%
    06:00 0°C° 0.4 mm 4 m/s 745 mmHg 85%
    07:00 0°C° 0.4 mm 4 m/s 745 mmHg 86%
    08:00 +1°C° 0.3 mm 3 m/s 745 mmHg 87%
    09:00 +1°C° 0.3 mm 3 m/s 745 mmHg 88%
    10:00 +2°C° 0.3 mm 2 m/s 746 mmHg 89%
    11:00 +3°C° 0.2 mm 2 m/s 746 mmHg 89%
    12:00 +3°C° 0.2 mm 2 m/s 746 mmHg 90%
    13:00 +3°C° 0.2 mm 2 m/s 746 mmHg 90%
    14:00 +3°C° 0.2 mm 2 m/s 747 mmHg 91%
    15:00 +2°C° 0.2 mm 2 m/s 747 mmHg 92%
    16:00 +2°C° 0.2 mm 2 m/s 748 mmHg 94%
    17:00 +2°C° 0.1 mm 2 m/s 748 mmHg 94%
    18:00 +2°C° 0.1 mm 2 m/s 749 mmHg 95%
    19:00 +1°C° 0.1 mm 3 m/s 749 mmHg 95%
    20:00 +1°C° 0 mm 3 m/s 750 mmHg 95%
    21:00 +1°C° 0 mm 3 m/s 750 mmHg 94%
    22:00 0°C° 0 mm 3 m/s 751 mmHg 94%
    23:00 0°C° 0 mm 3 m/s 751 mmHg 94%

    Poimâine, 12 Decembrie, Miercuri

    Timp Temperatura Precipitaţii Vânt Presiune Umiditate
    00:00 0°C° 0 mm 3 m/s 751 mmHg 93%
    01:00 0°C° 0 mm 3 m/s 752 mmHg 93%
    02:00 0°C° 0 mm 3 m/s 752 mmHg 93%
    03:00 -1°C° 0 mm 3 m/s 752 mmHg 93%
    04:00 -1°C° 0 mm 3 m/s 753 mmHg 94%
    05:00 -1°C° 0 mm 3 m/s 753 mmHg 94%
    06:00 -2°C° 0 mm 3 m/s 753 mmHg 94%
    07:00 -2°C° 0 mm 2 m/s 754 mmHg 94%
    08:00 -2°C° 0 mm 2 m/s 754 mmHg 92%
    09:00 -1°C° 0 mm 2 m/s 755 mmHg 90%
    10:00 -1°C° 0 mm 2 m/s 755 mmHg 87%
    11:00 -1°C° 0 mm 2 m/s 755 mmHg 86%
    12:00 +1°C° 0 mm 2 m/s 755 mmHg 84%
    13:00 +1°C° 0 mm 2 m/s 755 mmHg 83%
    14:00 +1°C° 0 mm 2 m/s 755 mmHg 85%
    15:00 -1°C° 0 mm 2 m/s 756 mmHg 88%
    16:00 -2°C° 0 mm 2 m/s 756 mmHg 91%
    17:00 -2°C° 0 mm 2 m/s 756 mmHg 91%
    18:00 -2°C° 0 mm 2 m/s 756 mmHg 91%
    19:00 -2°C° 0 mm 2 m/s 756 mmHg 92%
    20:00 -2°C° 0 mm 2 m/s 756 mmHg 92%
    21:00 -2°C° 0 mm 2 m/s 757 mmHg 92%
    22:00 -2°C° 0 mm 2 m/s 757 mmHg 92%
    23:00 0°C° 0 mm 1 m/s 757 mmHg 92%

    13 Decembrie, Joi

    Timp Temperatura Precipitaţii Vânt Presiune Umiditate
    00:00 -1°C° 0 mm 1 m/s 757 mmHg 92%
    01:00 -1°C° 0 mm 1 m/s 757 mmHg 92%
    02:00 -1°C° 0 mm 1 m/s 757 mmHg 92%
    03:00 -1°C° 0 mm 1 m/s 757 mmHg 92%
    04:00 -1°C° 0 mm 1 m/s 757 mmHg 93%
    05:00 -2°C° 0 mm 2 m/s 757 mmHg 93%
    06:00 -2°C° 0 mm 2 m/s 757 mmHg 93%
    07:00 -2°C° 0 mm 2 m/s 757 mmHg 94%
    08:00 -2°C° 0 mm 2 m/s 757 mmHg 92%
    09:00 -1°C° 0 mm 2 m/s 757 mmHg 91%
    10:00 -1°C° 0 mm 2 m/s 757 mmHg 89%
    11:00 -1°C° 0 mm 2 m/s 757 mmHg 88%
    12:00 -1°C° 0 mm 2 m/s 756 mmHg 86%
    13:00 +1°C° 0 mm 2 m/s 756 mmHg 85%
    14:00 -1°C° 0 mm 2 m/s 756 mmHg 86%
    15:00 -1°C° 0 mm 2 m/s 756 mmHg 87%
    16:00 -1°C° 0 mm 2 m/s 756 mmHg 88%
    17:00 -1°C° 0 mm 2 m/s 756 mmHg 88%
    18:00 -1°C° 0 mm 2 m/s 756 mmHg 88%
    19:00 -1°C° 0 mm 2 m/s 756 mmHg 89%
    20:00 -1°C° 0 mm 2 m/s 757 mmHg 89%
    21:00 +1°C° 0 mm 1 m/s 757 mmHg 89%
    22:00 +1°C° 0 mm 1 m/s 757 mmHg 90%
    23:00 +1°C° 0 mm 1 m/s 757 mmHg 90%

    14 Decembrie, Vineri

    Timp Temperatura Precipitaţii Vânt Presiune Umiditate
    00:00 +1°C° 0 mm 1 m/s 757 mmHg 89%
    01:00 +1°C° 0 mm 1 m/s 757 mmHg 89%
    02:00 -2°C° 0 mm 2 m/s 758 mmHg 89%
    03:00 -2°C° 0 mm 2 m/s 758 mmHg 88%
    04:00 -2°C° 0 mm 2 m/s 758 mmHg 88%
    05:00 -2°C° 0 mm 2 m/s 758 mmHg 89%
    06:00 -2°C° 0 mm 2 m/s 758 mmHg 90%
    07:00 -3°C° 0 mm 2 m/s 759 mmHg 91%
    08:00 -2°C° 0 mm 2 m/s 759 mmHg 89%
    09:00 -2°C° 0 mm 2 m/s 760 mmHg 87%
    10:00 -2°C° 0 mm 2 m/s 760 mmHg 86%
    11:00 -1°C° 0 mm 2 m/s 760 mmHg 85%
    12:00 -1°C° 0 mm 2 m/s 760 mmHg 84%
    13:00 -1°C° 0 mm 2 m/s 761 mmHg 83%
    14:00 -1°C° 0 mm 2 m/s 761 mmHg 86%
    15:00 -2°C° 0 mm 2 m/s 761 mmHg 89%
    16:00 -2°C° 0 mm 2 m/s 761 mmHg 91%
    17:00 -2°C° 0 mm 2 m/s 762 mmHg 92%
    18:00 -2°C° 0 mm 2 m/s 762 mmHg 92%
    19:00 -2°C° 0 mm 2 m/s 762 mmHg 93%
    20:00 -2°C° 0 mm 2 m/s 763 mmHg 93%
    21:00 -2°C° 0 mm 2 m/s 763 mmHg 92%
    22:00 -2°C° 0 mm 2 m/s 763 mmHg 92%
    23:00 -2°C° 0 mm 2 m/s 763 mmHg 92%

    15 Decembrie, Sâmbătă

    Timp Temperatura Precipitaţii Vânt Presiune Umiditate
    00:00 -2°C° 0 mm 2 m/s 763 mmHg 92%
    01:00 -2°C° 0 mm 2 m/s 764 mmHg 92%
    02:00 -2°C° 0 mm 2 m/s 764 mmHg 91%
    03:00 -2°C° 0 mm 2 m/s 764 mmHg 90%
    04:00 -2°C° 0 mm 2 m/s 764 mmHg 89%
    05:00 -2°C° 0 mm 2 m/s 764 mmHg 88%
    06:00 -2°C° 0 mm 2 m/s 765 mmHg 87%
    07:00 -2°C° 0 mm 2 m/s 765 mmHg 87%
    08:00 -1°C° 0 mm 3 m/s 765 mmHg 85%
    09:00 -1°C° 0 mm 3 m/s 765 mmHg 83%
    10:00 -1°C° 0 mm 3 m/s 766 mmHg 81%
    11:00 -1°C° 0 mm 3 m/s 766 mmHg 80%
    12:00 -1°C° 0 mm 3 m/s 765 mmHg 78%
    13:00 0°C° 0 mm 3 m/s 765 mmHg 77%
    14:00 -1°C° 0 mm 3 m/s 766 mmHg 80%
    15:00 -1°C° 0 mm 3 m/s 766 mmHg 82%
    16:00 -2°C° 0 mm 2 m/s 766 mmHg 85%
    17:00 -2°C° 0 mm 3 m/s 766 mmHg 86%
    18:00 -2°C° 0 mm 3 m/s 766 mmHg 87%
    19:00 -2°C° 0 mm 3 m/s 766 mmHg 88%
    20:00 -4°C° 0 mm 3 m/s 767 mmHg 88%
    21:00 -4°C° 0 mm 3 m/s 767 mmHg 88%
    22:00 -4°C° 0 mm 3 m/s 767 mmHg 88%
    23:00 -4°C° 0 mm 3 m/s 767 mmHg 87%
    Arată mai mult